Fergus Falls, MN

1:55 PM CDT on June 22, 2017 (GMT -0500)
Fergus Falls Municipal-Mickelson

Weather History for KFFM - June, 2014

Change the Weather History Date:

Monday, June 16, 2014

  Actual Average Record
Temperature  
Mean Temperature 62 °F -  
Max Temperature 69 °F 73 °F 90 °F (1973)
Min Temperature 55 °F 53 °F 40 °F (1974)
Degree Days  
Heating Degree Days 3    
Growing Degree Days 12 (Base 50)    
Moisture  
Dew Point 54 °F    
Average Humidity 72    
Maximum Humidity 94    
Minimum Humidity 56    
Precipitation  
Precipitation 0.05 in - - ()
Sea Level Pressure  
Sea Level Pressure 29.72 in    
Wind  
Wind Speed 7 mph (SE)    
Max Wind Speed 18 mph    
Max Gust Speed 26 mph    
Visibility 10 miles    
Events Rain    
Averages and records for this station are not official NWS values.
T = Trace of Precipitation, MM = Missing Value Source: NWS Daily Summary

Daily Weather History Graph

Daily Weather History Graph

Search for Another Location

Airport or City:

Trip Planner

Search our weather history database for the weather conditions in past years. The results will help you decide how hot, cold, wet, or windy it might be!

Date:

Astronomy

Jun. 16, 2014 Rise Set
Actual Time 5:32 AM CDT 9:18 PM CDT
Civil Twilight 4:53 AM CDT 9:57 PM CDT
Nautical Twilight 4:00 AM CDT 10:50 PM CDT
Astronomical Twilight 2:46 AM CDT 12:05 AM CDT
Moon 11:56 PM CDT (6/16) 9:49 AM CDT (6/16)
Length of Visible Light 17h 04m
Length of Day
15h 46m
Waning Gibbous, 83% of the Moon is Illuminated
Jun 16
Waning Gibbous
Jun 19
Last Quarter
Jun 27
New
Jul 5
First Quarter
Jul 12
Full

Hourly Weather History & Observations

Time (CDT) Temp. Dew Point Humidity Pressure Visibility Wind Dir Wind Speed Gust Speed Precip Events Conditions
12:14 AM 60.8 °F 51.8 °F 72% 29.72 in 10.0 mi SW 10.4 mph - N/A   Clear
12:34 AM 59.0 °F 51.8 °F 77% 29.73 in 10.0 mi SW 8.1 mph - N/A   Clear
12:54 AM 59.0 °F 51.8 °F 77% 29.73 in 10.0 mi SW 9.2 mph - N/A   Clear
1:14 AM 57.2 °F 51.8 °F 82% 29.73 in 10.0 mi SW 8.1 mph - N/A   Clear
1:34 AM 57.2 °F 51.8 °F 82% 29.73 in 10.0 mi SW 8.1 mph - N/A   Clear
1:54 AM 57.2 °F 50.0 °F 77% 29.73 in 10.0 mi SW 9.2 mph - N/A   Clear
2:14 AM 57.2 °F 50.0 °F 77% 29.73 in 10.0 mi SW 9.2 mph - N/A   Scattered Clouds
2:34 AM 57.2 °F 50.0 °F 77% 29.74 in 10.0 mi SW 5.8 mph - N/A   Scattered Clouds
2:54 AM 57.2 °F 48.2 °F 72% 29.74 in 10.0 mi SW 9.2 mph - N/A   Clear
3:15 AM 57.2 °F 48.2 °F 72% 29.74 in 10.0 mi SSW 11.5 mph - N/A   Clear
3:34 AM 55.4 °F 50.0 °F 82% 29.74 in 10.0 mi SSW 9.2 mph - N/A   Clear
3:54 AM 55.4 °F 50.0 °F 82% 29.75 in 10.0 mi SW 9.2 mph - N/A   Clear
4:15 AM 55.4 °F 48.2 °F 77% 29.75 in 10.0 mi SW 8.1 mph - N/A   Clear
4:34 AM 55.4 °F 50.0 °F 82% 29.75 in 10.0 mi SSW 8.1 mph - N/A   Clear
4:54 AM 55.4 °F 48.2 °F 77% 29.75 in 10.0 mi SSW 6.9 mph - N/A   Clear
5:15 AM 55.4 °F 48.2 °F 77% 29.75 in 10.0 mi SSW 8.1 mph - N/A   Clear
5:34 AM 55.4 °F 48.2 °F 77% 29.76 in 10.0 mi SSW 5.8 mph - N/A   Clear
5:54 AM 55.4 °F 48.2 °F 77% 29.77 in 10.0 mi Calm Calm - N/A   Clear
6:14 AM 55.4 °F 48.2 °F 77% 29.77 in 10.0 mi Calm Calm - N/A   Clear
6:34 AM 57.2 °F 50.0 °F 77% 29.77 in 10.0 mi Calm Calm - N/A   Clear
6:54 AM 57.2 °F 51.8 °F 82% 29.78 in 10.0 mi SSW 3.5 mph - N/A   Clear
7:14 AM 60.8 °F 51.8 °F 72% 29.78 in 10.0 mi Calm Calm - N/A   Clear
7:34 AM 60.8 °F 51.8 °F 72% 29.78 in 10.0 mi Calm Calm - N/A   Clear
7:54 AM 62.6 °F 53.6 °F 72% 29.79 in 10.0 mi South 9.2 mph - N/A   Clear
8:14 AM 62.6 °F 51.8 °F 68% 29.78 in 10.0 mi South 6.9 mph - N/A   Clear
8:34 AM 64.4 °F 51.8 °F 64% 29.78 in 10.0 mi South 6.9 mph - N/A   Scattered Clouds
8:54 AM 64.4 °F 53.6 °F 68% 29.79 in 10.0 mi South 6.9 mph - N/A   Clear
9:14 AM 64.4 °F 53.6 °F 68% 29.77 in 10.0 mi Calm Calm - N/A   Clear
9:34 AM 64.4 °F 55.4 °F 73% 29.79 in 10.0 mi Calm Calm - N/A   Scattered Clouds
9:54 AM 64.4 °F 55.4 °F 73% 29.77 in 10.0 mi Calm Calm - N/A   Scattered Clouds
10:34 AM 64.4 °F 55.4 °F 73% 29.75 in 10.0 mi SSE 6.9 mph - 0.01 in   Scattered Clouds
10:54 AM 66.2 °F 55.4 °F 68% 29.75 in 10.0 mi Calm Calm - 0.01 in   Clear
11:14 AM 66.2 °F 55.4 °F 68% 29.74 in 10.0 mi East 3.5 mph - N/A   Clear
11:34 AM 66.2 °F 55.4 °F 68% 29.74 in 10.0 mi ESE 5.8 mph - N/A   Scattered Clouds
11:54 AM 66.2 °F 57.2 °F 73% 29.78 in 10.0 mi Calm Calm - N/A   Scattered Clouds
12:14 PM 66.2 °F 57.2 °F 73% 29.77 in 10.0 mi Calm Calm - N/A Rain Light Rain
12:34 PM 66.2 °F 57.2 °F 73% 29.76 in 10.0 mi ENE 5.8 mph - N/A Rain Light Rain
12:54 PM 64.4 °F 57.2 °F 77% 29.76 in 10.0 mi East 6.9 mph - N/A Rain Light Rain
1:14 PM 64.4 °F 57.2 °F 77% 29.79 in 10.0 mi Calm Calm - N/A Rain Light Rain
1:34 PM 64.4 °F 60.8 °F 88% 29.81 in 10.0 mi South 3.5 mph - 0.02 in Rain Light Rain
1:54 PM 64.4 °F 62.6 °F 94% 29.81 in 10.0 mi South 4.6 mph - 0.02 in Rain Light Rain
2:14 PM 66.2 °F 62.6 °F 88% 29.79 in 10.0 mi SSE 10.4 mph - 0.01 in Rain Light Rain
2:34 PM 66.2 °F 60.8 °F 83% 29.68 in 10.0 mi SE 18.4 mph 26.5 mph 0.02 in Rain Rain
2:54 PM 66.2 °F 59.0 °F 78% 29.72 in 10.0 mi SSE 8.1 mph 17.3 mph 0.02 in   Clear
3:34 PM 69.8 °F 57.2 °F 64% 29.72 in 10.0 mi SE 6.9 mph - N/A   Clear
3:54 PM 69.8 °F 53.6 °F 56% 29.70 in 10.0 mi SE 6.9 mph - N/A   Clear
4:14 PM 69.8 °F 53.6 °F 56% 29.68 in 10.0 mi ESE 8.1 mph - N/A   Clear
4:34 PM 69.8 °F 53.6 °F 56% 29.67 in 10.0 mi ESE 9.2 mph - N/A   Clear
4:54 PM 69.8 °F 53.6 °F 56% 29.65 in 10.0 mi ESE 9.2 mph - N/A   Clear
5:14 PM 69.8 °F 53.6 °F 56% 29.64 in 10.0 mi ESE 8.1 mph - N/A   Clear
5:35 PM 68.0 °F 55.4 °F 64% 29.64 in 10.0 mi SE 8.1 mph - N/A   Clear
5:54 PM 68.0 °F 53.6 °F 60% 29.64 in 10.0 mi Calm Calm - N/A   Clear
6:14 PM 68.0 °F 53.6 °F 60% 29.64 in 10.0 mi Calm Calm - N/A   Clear
6:33 PM 68.0 °F 55.4 °F 64% 29.65 in 10.0 mi SE 4.6 mph - N/A   Clear
6:54 PM 68.0 °F 55.4 °F 64% 29.65 in 10.0 mi Calm Calm - N/A   Clear
7:14 PM 68.0 °F 57.2 °F 68% 29.64 in 10.0 mi NE 3.5 mph - N/A   Clear
7:35 PM 68.0 °F 57.2 °F 68% 29.65 in 10.0 mi NE 4.6 mph - N/A   Clear
7:54 PM 68.0 °F 57.2 °F 68% 29.65 in 10.0 mi ENE 5.8 mph - N/A   Clear
8:14 PM 68.0 °F 57.2 °F 68% 29.65 in 10.0 mi ENE 5.8 mph - N/A   Clear
8:35 PM 66.2 °F 57.2 °F 73% 29.64 in 10.0 mi ENE 9.2 mph - N/A   Clear
8:54 PM 66.2 °F 55.4 °F 68% 29.64 in 10.0 mi East 6.9 mph - N/A   Clear
9:14 PM 66.2 °F 55.4 °F 68% 29.64 in 10.0 mi ENE 9.2 mph - N/A   Clear
9:34 PM 66.2 °F 55.4 °F 68% 29.66 in 10.0 mi ENE 8.1 mph - N/A   Clear
9:54 PM 64.4 °F 55.4 °F 73% 29.66 in 10.0 mi ENE 3.5 mph - N/A   Clear
10:14 PM 64.4 °F 55.4 °F 73% 29.65 in 10.0 mi ENE 5.8 mph - N/A   Clear
10:34 PM 64.4 °F 55.4 °F 73% 29.66 in 10.0 mi ENE 8.1 mph - N/A   Clear
10:54 PM 64.4 °F 55.4 °F 73% 29.66 in 10.0 mi ENE 8.1 mph - N/A   Clear
11:14 PM 64.4 °F 57.2 °F 77% 29.68 in 10.0 mi East 8.1 mph - N/A   Clear
11:34 PM 64.4 °F 57.2 °F 77% 29.69 in 10.0 mi East 6.9 mph - N/A   Clear
11:54 PM 64.4 °F 57.2 °F 77% 29.69 in 10.0 mi East 6.9 mph - N/A   Clear